sat.trackr.live / text

‹ back to catalog

STARLINK-5021

NORAD 53902 · 2022-119S

PAYLOAD ACTIVE UNKNOWN

§ Identity

Operator
Country
US
Launch date
2022-09-24
Launch site
AFETR
Launch vehicle
Mass (kg)
RCS (m²)

Purposes: comms

External: N2YO · Heavens-Above · Gunter

§ Orbital elements

Epoch: 2026-05-24T19:50:36.023712Z

Period
95.44 min
Inclination
53.2142°
Eccentricity
0.0001777
Mean motion
15.08816281 rev/d
Perigee alt
538.6 km
Apogee alt
541.0 km
Semi-major
6,918.0 km
B*
2.5417e-4
RAAN
292.0783°
Arg perigee
91.1500°
Mean anomaly
268.9695°
Rev number
20,388

§ Raw data

STARLINK-50211 53902U 22119S   26144.82680583  .00003757  00000+0  25417-3 0  99942 53902  53.2142 292.0783 0001777  91.1500 268.9695 15.08816281203883

JSON: /api/v1/satellites/53902 · /tle

For live sub-satellite position, see the globe view (requires WebGL).

§ Visibility from observer

Set your observer location to see the next 7 days of passes ≥ 10°. The values pass through the URL so the page stays shareable.

No JS? Fill the form by hand. The geolocation button needs JavaScript.